Regional Weather Roundup
Issued by NWS Sterling, VA

Home | Current Version | Previous Version | Graphics & Text | Print | Product List | Glossary On
Versions: 1 2 3 4 5 6 7 8 9 10 11 12 13 14 15 16 17 18 19 20 21 22 23 24 25 26 27 28 29 30 31 32 33 34 35 36 37 38 39 40 41 42 43 44 45 46 47 48 49
000
ASUS41 KLWX 041310
RWRLWX

REGIONAL WEATHER ROUNDUP
NATIONAL WEATHER SERVICE BALTIMORE MD/WASHINGTON DC
900 AM EDT TUE AUG 04 2015

Note: "FAIR" indicates few or no clouds below 12,000 feet
with no significant weather and/or obstructions to visibility.
 TC=TEMPERATURE CELSIUS

 * =Non NWS site. Station does not report precipitation (e.g. rain,
    snow, etc.), thunder, or fog.

DCZ001-MDZ009-015-VAZ040>042-051-053>054-041400-
WASHINGTON METRO

CITY           SKY/WX    TMP DP  RH WIND       PRES   REMARKS
WASHINGTON NAT MOSUNNY   82  64  54 SW8       29.93S
DULLES         MOSUNNY   76  63  64 S5        29.94R
ANDREWS AFB    MOSUNNY   80  63  55 SW7       29.93R
FT BELVOIR     SUNNY     80  67  65 VRB5      29.93S
QUANTICO       MOSUNNY   82  68  63 W3        29.90R
COLLEGE PARK*  MOSUNNY   77  63  61 SW3       29.92R
LEESBURG*      SUNNY     77  70  78 SW3       29.95S
MANASSAS*      SUNNY     77  68  73 CALM      29.94R
GAITHERSBURG*  SUNNY     73  64  73 CALM      29.98R

$$

MDZ006>007-011-014-041400-
BALTIMORE METRO

CITY           SKY/WX    TMP DP  RH WIND       PRES   REMARKS
BWI AIRPORT    MOSUNNY   75  67  76 SW5       29.92R
MD SCIENCE CTR   N/A     75  67  76 MISG      29.92R
MARTIN STATE   MOSUNNY   77  73  88 SW6       29.93R
ANNAPOLIS      MOSUNNY   77  62  59 VRB3      29.91S
FORT MEADE*    SUNNY     73  64  73 CALM      29.95R

$$

MDZ012-015-019>023-041400-
MARYLAND EASTERN SHORE

CITY           SKY/WX    TMP DP  RH WIND       PRES   REMARKS
OCEAN CITY     MOSUNNY   84  74  71 SW13      29.94R HX  91
SALISBURY      MOSUNNY   81  74  79 SW9G20    29.93S
BAY BRIDGE AP*   N/A     79  64  61 SW7       29.91F
CAMBRIDGE*     PTSUNNY   81  72  74 SW6       29.92S
EASTON*        SUNNY     81  72  74 SW6       29.95S

$$

MDZ017>025-041400-
SOUTHERN MARYLAND

CITY           SKY/WX    TMP DP  RH WIND       PRES   REMARKS
PATUXENT RIVER MOSUNNY   80  71  74 SW10      29.93R
ST INIGOES     SUNNY     80  72  76 SW12      29.93S
LEONARDTOWN*   SUNNY     79  70  73 CALM      29.95S

$$

MDZ003>005-041400-
NORTH CENTRAL MARYLAND

CITY           SKY/WX    TMP DP  RH WIND       PRES   REMARKS
FREDERICK*     NOT AVBL
HAGERSTOWN APT MOSUNNY   74  65  73 SW7       29.94R
WESTMINSTER*   SUNNY     73  66  78 W9        29.94R

$$

MDZ501>502-041400-
WESTERN MARYLAND

CITY           SKY/WX    TMP DP  RH WIND       PRES   REMARKS
OAKLAND*       MOSUNNY   64  64 100 W7        30.06R
CUMBERLAND*    SUNNY     72  68  88 CALM      30.00S

$$

VAZ025>031-041400-
SHENANDOAH VALLEY

CITY           SKY/WX    TMP DP  RH WIND       PRES   REMARKS
WINCHESTER*    SUNNY     79  68  69 W5        29.95S
FRONT ROYAL*   FAIR      77  64  65 CALM      29.94S
LURAY*         FAIR      81  64  57 SW6       29.96S
NEW MARKET*    FAIR      75  66  75 CALM      29.96S
STAUNTON*      SUNNY     80  62  52 SW3       30.01S
WAYNESBORO*    FAIR      77  60  56 CALM      30.01R

$$

WVZ021-048>050-054>055-041400-
EASTERN WEST VIRGINIA PANHANDLE

CITY           SKY/WX    TMP DP  RH WIND       PRES   REMARKS
MARTINSBURG    SUNNY     76  68  76 W12       29.94S
PETERSBURG*    PTSUNNY   71  66  86 CALM      29.98S

$$

VAZ036>039-050-041400-
CENTRAL FOOTHILLS

CITY           SKY/WX    TMP DP  RH WIND       PRES   REMARKS
CHARLOTTESVILL SUNNY     80  65  59 CALM      29.96R
CULPEPER*      SUNNY     76  68  76 CALM      29.95S
ORANGE*        SUNNY     79  68  69 SW8       29.97R
GORDONSVILLE*  FAIR      75  66  73 SW5       29.95S
WARRENTON*     FAIR      79  71  75 CALM      29.94R

$$

VAZ055>057-041400-
NORTH AND CENTRAL PIEDMONT

CITY           SKY/WX    TMP DP  RH WIND       PRES   REMARKS
FREDERICKSBRG* SUNNY     80  71  73 SW5       29.94R
STAFFORD*      SUNNY     78  67  69 S5        29.98S

$$

NCZ024-NYZ072-PAZ021-071-VAZ022-071-041400-
OTHER REGIONAL OBSERVATIONS

CITY           SKY/WX    TMP DP  RH WIND       PRES   REMARKS
NEW YORK CITY  CLOUDY    74  64  71 VRB5      29.87F
PHILADELPHIA   MOSUNNY   79  67  66 SW12      29.89R
PITTSBURGH     MOSUNNY   67  58  72 W7        29.98R
ROANOKE        MOSUNNY   79  61  53 VRB3      30.02S
RICHMOND       MOSUNNY   81  71  71 SW10      29.96R
RALEIGH        MOSUNNY   81  74  79 SW7       30.02R

$$

ANZ530>537-041400-
MARINE OBSERVATIONS

STATION/POSITION TIME  TEMP    WIND        PRES
                       AIR SEA DIR/SP/G
                 (UTC) (F)     (DEG/KT/KT) (MB)
THOMAS PT LIGHT  NOT AVBL
BALT KEY BRIDGE  1200   72     240/  6/  7 1012.6R
COVE POINT       1200   78     240/  3/  6 1014.0F
LEWISETTA        1200   79 83  240/ 10/ 14 1013.1R
SOLOMONS ISLAND  1200      83                N/A
PINEY POINT      1200          270/  6/  9   N/A

$$




USA.gov is the U.S. government's official web portal to all federal, state and local government web resources and services.